• En España
  • Lista de países
  • Para 7 días
  • Temperatura del agua
  • Mapa Satelital
  • El tiempo en el mapa
  • Informadores
  • user-avatar
    Iniciar sesión

    Tiempo cada hora Yamashurma

    Hoy, 14 Agosto, Martes

    Tiempo Temperatura Precipitaciones Viento Presión Humedad
    00:00 +17°C° 0 mm 2 mps 746 mmHg 76%
    01:00 +16°C° 0 mm 2 mps 746 mmHg 76%
    02:00 +15°C° 0 mm 2 mps 746 mmHg 76%
    03:00 +15°C° 0 mm 2 mps 746 mmHg 76%
    04:00 +15°C° 0 mm 2 mps 746 mmHg 75%
    05:00 +16°C° 0 mm 2 mps 747 mmHg 75%
    06:00 +16°C° 0 mm 2 mps 747 mmHg 74%
    07:00 +17°C° 0 mm 2 mps 747 mmHg 72%
    08:00 +18°C° 0 mm 3 mps 747 mmHg 70%
    09:00 +19°C° 0 mm 3 mps 747 mmHg 68%
    10:00 +20°C° 0,2 mm 3 mps 747 mmHg 65%
    11:00 +21°C° 0,2 mm 4 mps 747 mmHg 61%
    12:00 +22°C° 0,2 mm 4 mps 748 mmHg 58%
    13:00 +22°C° 0,4 mm 4 mps 748 mmHg 59%
    14:00 +22°C° 0,4 mm 4 mps 748 mmHg 60%
    15:00 +21°C° 0 mm 4 mps 748 mmHg 61%
    16:00 +21°C° 0,4 mm 3 mps 748 mmHg 66%
    17:00 +20°C° 0,4 mm 3 mps 748 mmHg 70%
    18:00 +19°C° 0,4 mm 2 mps 748 mmHg 74%
    19:00 +18°C° 0 mm 2 mps 748 mmHg 76%
    20:00 +17°C° 0 mm 2 mps 749 mmHg 78%
    21:00 +15°C° 0 mm 2 mps 749 mmHg 80%
    22:00 +15°C° 0 mm 2 mps 749 mmHg 80%
    23:00 +14°C° 0 mm 2 mps 750 mmHg 80%

    Mañana, 15 Agosto, Miércoles

    Tiempo Temperatura Precipitaciones Viento Presión Humedad
    00:00 +14°C° 0 mm 2 mps 750 mmHg 80%
    01:00 +13°C° 0 mm 2 mps 750 mmHg 80%
    02:00 +13°C° 0 mm 2 mps 750 mmHg 80%
    03:00 +13°C° 0 mm 2 mps 751 mmHg 80%
    04:00 +13°C° 0 mm 2 mps 751 mmHg 80%
    05:00 +14°C° 0 mm 2 mps 751 mmHg 80%
    06:00 +14°C° 0 mm 2 mps 752 mmHg 80%
    07:00 +16°C° 0 mm 3 mps 752 mmHg 75%
    08:00 +18°C° 0 mm 3 mps 752 mmHg 70%
    09:00 +20°C° 0 mm 3 mps 752 mmHg 64%
    10:00 +21°C° 0 mm 3 mps 752 mmHg 60%
    11:00 +22°C° 0 mm 3 mps 752 mmHg 56%
    12:00 +23°C° 0 mm 4 mps 752 mmHg 51%
    13:00 +24°C° 0 mm 3 mps 752 mmHg 53%
    14:00 +24°C° 0 mm 3 mps 752 mmHg 54%
    15:00 +24°C° 0 mm 3 mps 752 mmHg 55%
    16:00 +23°C° 0 mm 2 mps 752 mmHg 59%
    17:00 +21°C° 0 mm 2 mps 751 mmHg 63%
    18:00 +21°C° 0 mm 2 mps 751 mmHg 67%
    19:00 +20°C° 0 mm 2 mps 751 mmHg 69%
    20:00 +18°C° 0 mm 3 mps 751 mmHg 72%
    21:00 +17°C° 0 mm 3 mps 751 mmHg 74%
    22:00 +17°C° 0 mm 4 mps 750 mmHg 75%
    23:00 +17°C° 0 mm 4 mps 750 mmHg 75%

    Pasado mañana, 16 Agosto, Jueves

    Tiempo Temperatura Precipitaciones Viento Presión Humedad
    00:00 +17°C° 0 mm 4 mps 750 mmHg 76%
    01:00 +16°C° 0,3 mm 5 mps 749 mmHg 78%
    02:00 +16°C° 0,3 mm 5 mps 749 mmHg 80%
    03:00 +16°C° 0,3 mm 5 mps 749 mmHg 81%
    04:00 +16°C° 0,1 mm 5 mps 748 mmHg 82%
    05:00 +16°C° 0,1 mm 5 mps 748 mmHg 82%
    06:00 +17°C° 0,1 mm 5 mps 748 mmHg 82%
    07:00 +19°C° 0,2 mm 6 mps 748 mmHg 81%
    08:00 +20°C° 0,2 mm 6 mps 748 mmHg 79%
    09:00 +21°C° 0,2 mm 6 mps 748 mmHg 78%
    10:00 +22°C° 0,1 mm 6 mps 748 mmHg 75%
    11:00 +23°C° 0,1 mm 6 mps 748 mmHg 73%
    12:00 +24°C° 0,1 mm 6 mps 748 mmHg 71%
    13:00 +24°C° 0,3 mm 6 mps 748 mmHg 70%
    14:00 +26°C° 0,3 mm 5 mps 748 mmHg 69%
    15:00 +26°C° 0,3 mm 5 mps 748 mmHg 68%
    16:00 +25°C° 0,2 mm 4 mps 748 mmHg 72%
    17:00 +23°C° 0,2 mm 4 mps 749 mmHg 76%
    18:00 +22°C° 0,2 mm 3 mps 749 mmHg 80%
    19:00 +21°C° 0,1 mm 3 mps 749 mmHg 84%
    20:00 +19°C° 0,1 mm 2 mps 749 mmHg 89%
    21:00 +18°C° 0,1 mm 2 mps 750 mmHg 93%
    22:00 +17°C° 0 mm 2 mps 750 mmHg 94%
    23:00 +17°C° 0 mm 2 mps 750 mmHg 94%

    17 Agosto, Viernes

    Tiempo Temperatura Precipitaciones Viento Presión Humedad
    00:00 +16°C° 0 mm 2 mps 750 mmHg 95%
    01:00 +16°C° 0 mm 2 mps 750 mmHg 95%
    02:00 +16°C° 0 mm 2 mps 750 mmHg 94%
    03:00 +15°C° 0 mm 2 mps 751 mmHg 93%
    04:00 +15°C° 0 mm 2 mps 751 mmHg 92%
    05:00 +15°C° 0 mm 2 mps 751 mmHg 91%
    06:00 +15°C° 0 mm 2 mps 751 mmHg 90%
    07:00 +17°C° 0 mm 3 mps 751 mmHg 84%
    08:00 +18°C° 0 mm 3 mps 752 mmHg 79%
    09:00 +19°C° 0 mm 3 mps 752 mmHg 74%
    10:00 +20°C° 0,1 mm 3 mps 752 mmHg 69%
    11:00 +21°C° 0,1 mm 3 mps 752 mmHg 65%
    12:00 +22°C° 0,1 mm 3 mps 752 mmHg 60%
    13:00 +22°C° 0,2 mm 4 mps 752 mmHg 59%
    14:00 +22°C° 0,2 mm 4 mps 752 mmHg 58%
    15:00 +22°C° 0,2 mm 4 mps 752 mmHg 56%
    16:00 +21°C° 0,1 mm 4 mps 752 mmHg 61%
    17:00 +20°C° 0,1 mm 4 mps 752 mmHg 65%
    18:00 +19°C° 0,1 mm 3 mps 753 mmHg 69%
    19:00 +17°C° 0 mm 3 mps 753 mmHg 73%
    20:00 +16°C° 0 mm 3 mps 753 mmHg 77%
    21:00 +13°C° 0 mm 3 mps 753 mmHg 81%
    22:00 +13°C° 0 mm 3 mps 753 mmHg 83%
    23:00 +12°C° 0 mm 3 mps 753 mmHg 85%

    18 Agosto, Sábado

    Tiempo Temperatura Precipitaciones Viento Presión Humedad
    00:00 +12°C° 0 mm 3 mps 754 mmHg 86%
    01:00 +11°C° 0 mm 3 mps 754 mmHg 87%
    02:00 +11°C° 0 mm 4 mps 754 mmHg 89%
    03:00 +10°C° 0 mm 4 mps 754 mmHg 90%
    04:00 +11°C° 0 mm 4 mps 755 mmHg 88%
    05:00 +11°C° 0 mm 4 mps 755 mmHg 87%
    06:00 +11°C° 0 mm 4 mps 755 mmHg 86%
    07:00 +13°C° 0 mm 5 mps 755 mmHg 80%
    08:00 +14°C° 0 mm 5 mps 756 mmHg 74%
    09:00 +16°C° 0 mm 5 mps 756 mmHg 67%
    10:00 +17°C° 0 mm 5 mps 756 mmHg 64%
    11:00 +19°C° 0 mm 5 mps 756 mmHg 60%
    12:00 +20°C° 0 mm 5 mps 756 mmHg 57%
    13:00 +20°C° 0 mm 5 mps 756 mmHg 56%
    14:00 +20°C° 0 mm 5 mps 756 mmHg 56%
    15:00 +20°C° 0 mm 5 mps 756 mmHg 56%
    16:00 +19°C° 0 mm 4 mps 756 mmHg 60%
    17:00 +18°C° 0 mm 4 mps 756 mmHg 65%
    18:00 +17°C° 0 mm 3 mps 756 mmHg 70%
    19:00 +16°C° 0 mm 3 mps 756 mmHg 74%
    20:00 +13°C° 0 mm 3 mps 756 mmHg 77%
    21:00 +12°C° 0 mm 3 mps 756 mmHg 81%
    22:00 +11°C° 0 mm 3 mps 757 mmHg 82%
    23:00 +12°C° 0 mm 2 mps 757 mmHg 82%

    19 Agosto, Domingo

    Tiempo Temperatura Precipitaciones Viento Presión Humedad
    00:00 +10°C° 0 mm 2 mps 757 mmHg 83%
    01:00 +10°C° 0 mm 2 mps 757 mmHg 84%
    02:00 +10°C° 0 mm 2 mps 757 mmHg 86%
    03:00 +9°C° 0 mm 2 mps 757 mmHg 87%
    04:00 +10°C° 0 mm 2 mps 757 mmHg 85%
    05:00 +10°C° 0 mm 2 mps 757 mmHg 84%
    06:00 +12°C° 0 mm 2 mps 757 mmHg 83%
    07:00 +14°C° 0 mm 2 mps 757 mmHg 76%
    08:00 +16°C° 0 mm 2 mps 757 mmHg 69%
    09:00 +17°C° 0 mm 2 mps 757 mmHg 62%
    10:00 +18°C° 0 mm 2 mps 757 mmHg 58%
    11:00 +19°C° 0 mm 2 mps 757 mmHg 53%
    12:00 +20°C° 0 mm 2 mps 757 mmHg 49%
    13:00 +21°C° 0 mm 2 mps 756 mmHg 48%
    14:00 +21°C° 0 mm 2 mps 756 mmHg 48%
    15:00 +21°C° 0 mm 2 mps 756 mmHg 47%
    16:00 +21°C° 0 mm 1 mps 755 mmHg 52%
    17:00 +21°C° 0 mm 1 mps 755 mmHg 57%
    18:00 +20°C° 0 mm 1 mps 755 mmHg 62%
    19:00 +18°C° 0 mm 1 mps 755 mmHg 65%
    20:00 +16°C° 0 mm 1 mps 755 mmHg 68%
    21:00 +14°C° 0 mm 1 mps 755 mmHg 71%
    22:00 +14°C° 0 mm 1 mps 755 mmHg 72%
    23:00 +14°C° 0 mm 1 mps 755 mmHg 74%
    Mostrar más